Погода в Огре

Латвия     56°49′08″N   24°36′34″E
темп.,
°C
ветер,
м/с
пор.,
м/с
влажн.,
%
обл.,
%
осадки,
мм/ч
давл.,
гПа
погр.,
м
27 сентября, пн
пн2700:00+7св11885 0.0 102610
03:00+6в22895 0.0 102721
06:00+5в22895 0.0 102840
09:00+7вюв24825 0.0 1029167
12:00+13вюв246046 0.0 1029760
15:00+15вюв23525 0.0 10281129
18:00+13в24651 0.0 1028131
21:00+8вюв25852 0.0 102886
28 сентября, вт
вт2800:00+7вюв27900 0.0 1029144
03:00+6вюв24940 0.0 103069
06:00+5вюв24960 0.0 103074
09:00+8вюв26830 0.0 1030159
12:00+14вюв35585 0.0 1031831
15:00+15юв355098 0.0 10301684
18:00+12юв2264100 0.0 103160
21:00+11вюв2568100 0.0 1031108
29 сентября, ср
ср2900:00+11вюв2772100 0.0 1032228
03:00+10вюв3780100 0.0 1032295
06:00+10вюв3880100 0.0 1032331
09:00+10вюв3880100 0.0 1033359
12:00+11юв4771100 0.0 1033590
15:00+13юв465820 0.0 10321198
18:00+11юв47705 0.1 1032653
21:00+8вюв311815 0.1 1031309
30 сентября, чт
чт3000:00+8вюв31079100 0.0 1032280
03:00+9юв41073100 0.0 1031444
06:00+9вюв41168100 0.0 1030386
09:00+9вюв5106795 0.0 1029388
12:00+12юв610570 0.0 1029936
15:00+14ююв69522 0.0 10281281
18:00+13ююв51061100 0.0 10281108
21:00+11юв41169100 0.0 1028650
1 октября, пт
пт100:00+10ююв3989100 0.8 1028490
03:00+9ююв3994100 1.6 1028452
06:00+9ююв3795100 0.1 1028355
09:00+10ююв369499 0.1 1028320
12:00+13ю358166 0.0 1028678
15:00+14ююв356756 0.1 10271188
18:00+13ююв367637 0.2 1026249
21:00+9ююв3892100 0.2 1027202